Hourly Data Report for January 10, 2022

OTTAWA INTL A
ONTARIO
Current Station Operator: NAVCAN

45°19'00.000" N
75°40'00.000" W
114.90 m
6106001
71628
YOW

Download Data

Hourly Data (January 2022)
Hourly Data Report for January 10, 2022
TIME
LST
Temp Definition
°C
Dew Point Definition
°C
Rel Hum Definition
%
Precip. Amount Definition
mm

Wind Dir Definition
10's deg

Wind Spd Definition
km/h
Visibility Definition
km
Stn Press Definition
kPa
Hmdx Definition


Wind Chill Definition


Weather Definition


00:00 -8.3 -15.0 59   28 35 24.1 100.18   -18 LegendNANA
01:00 -9.6 -16.5 58   29 27 24.1 100.25   -19 Mainly Clear
02:00 -10.8 -17.4 59   28 21 24.1 100.34   -19 LegendNANA
03:00 -11.9 -18.4 59   29 16 24.1 100.37   -19 LegendNANA
04:00 -13.9 -18.7 67   25 11 24.1 100.40   -20 Clear
05:00 -14.1 -18.8 68   26 7 24.1 100.42   -19 LegendNANA
06:00 -13.1 -17.7 69   23 7 24.1 100.40   -18 LegendNANA
07:00 -12.7 -16.9 71   26 4 24.1 100.42   -15 Mostly Cloudy
08:00 -13.4 -17.6 71   26 10 24.1 100.42   -19 LegendNANA
09:00 -12.5 -17.6 66   29 30 24.1 100.46   -23 Snow
10:00 -12.5 -18.9 59   29 19 24.1 100.51   -21 Mainly Clear
11:00 -12.3 -19.5 55   27 22 24.1 100.51   -21 LegendNANA
12:00 -12.1 -19.4 55   28 24 24.1 100.44   -21 LegendNANA
13:00 -12.3 -19.7 54   29 30 24.1 100.39   -23 Mostly Cloudy
14:00 -12.1 -20.1 52   28 29 24.1 100.38   -22 LegendNANA
15:00 -12.2 -19.6 55   30 22 24.1 100.41   -21 LegendNANA
16:00 -13.0 -20.3 55   29 18 24.1 100.43   -21 Mostly Cloudy
17:00 -14.0 -22.0 51   30 23 24.1 100.50   -24 LegendNANA
18:00 -14.9 -23.1 50   31 21 24.1 100.58   -24 LegendNANA
19:00 -15.2 -23.5 50   30 16 24.1 100.66   -23 Mostly Cloudy
20:00 -16.4 -23.2 56   33 27 24.1 100.78   -27 LegendNANA
21:00 -17.6 -23.0 63   34 28 16.1 100.93   -29 LegendNANA
22:00 -18.6 -24.2 62   34 31 16.1 101.07   -31 Mostly Cloudy
23:00 -20.0 -26.4 58   35 18 16.1 101.25   -30 LegendNANA

Notes on Data Quality.

Legend

  • E = Estimated
  • M = Missing
  • NA = Not Available*
  • [empty] = Indicates an unobserved value
Date modified: